Regional Weather Roundup
Issued by NWS

Home | Current Version | Previous Version | Graphics & Text | Print | Product List | Glossary On
Versions: 1 2 3 4 5 6 7 8 9 10 11 12 13 14 15 16 17 18 19 20 21 22 23 24 25 26 27 28 29 30 31 32 33 34 35 36 37 38 39 40 41 42 43 44 45 46 47 48 49 50
000
ASUS43 KLSX 010407
RWRMO

WEATHER SUMMARY FOR MISSOURI
NATIONAL WEATHER SERVICE SPRINGFIELD MO
1000 PM CST SAT FEB 28 2015

NOTE: "FAIR" INDICATES FEW OR NO CLOUDS BELOW 12,000 FEET WITH NO
       SIGNIFICANT WEATHER AND/OR OBSTRUCTIONS TO VISIBILITY.
       CURRENT SKY AND/OR WEATHER CONDITIONS ARE NOT AVAILABLE FOR
       CHILLICOTHE AND FARMINGTON.

MOZ001>031-035>038-043-044-053-054-010500-
...NORTHERN AND WESTERN MISSOURI...

CITY           SKY/WX    TMP DP  RH WIND       PRES   REMARKS
KANSAS CTY INT FLURRIES  22  19  89 SE3       30.38S
KANSAS C DTWN  LGT SNOW  24  19  81 SE6       30.39S WCI  17
LEE`S SUMMIT   LGT SNOW  22  19  89 SE5       30.37F FOG     WCI  16
ST JOSEPH      CLOUDY    23  19  85 S5        30.40S WCI  17
CHILLICOTHE      N/A     23  19  85 E5        30.42S WCI  17
KIRKSVILLE     LGT SNOW  20  18  92 E5        30.42S FOG     WCI  13

$$
MOZ066>068-077>081-088>096-101>105-010500-
...SOUTHWEST MISSOURI...

CITY           SKY/WX    TMP DP  RH WIND       PRES   REMARKS
SPRINGFIELD    LGT SNOW  26  23  88 S9        30.34S WCI  17
JOPLIN         CLOUDY    26  24  92 SE5       30.36S FOG     WCI  20

$$
MOZ032>034-039>042-045>050-055>058-069>072-010500-
...CENTRAL MISSOURI...

CITY           SKY/WX    TMP DP  RH WIND       PRES   REMARKS
COLUMBIA       LGT SNOW  23  21  92 SE7       30.40S FOG     WCI  15
JEFFERSON CITY LGT SNOW  24  22  91 E5        30.43S FOG     WCI  18
ROLLA          LGT SNOW  24  21  88 E3        30.36S FOG
SEDALIA        LGT SNOW  24  21  88 E3        30.40S FOG
WHITEMAN AFB   LGT SNOW  23  21  92 NE3       30.38S FOG
WARRENSBURG    LGT SNOW  23  21  93 CALM      30.40S
OSAGE BEACH    CLOUDY    25  21  86 CALM      30.39S

$$
MOZ051-052-059>065-010500-
...EAST CENTRAL MISSOURI...

CITY           SKY/WX    TMP DP  RH WIND       PRES   REMARKS
ST LOUIS INTL  LGT SNOW  25  22  88 E5        30.45F VSB 3/4 WCI  19
SPIRIT OF STL  LGT SNOW  25  23  92 CALM      30.45S FOG
ST CHARLES     LGT SNOW  23  21  92 E8        30.45F VSB 3/4 WCI  14

$$
MOZ072>076-082>087-097>100-106>115-010500-
...SOUTH CENTRAL AND SOUTHEAST MISSOURI...

CITY           SKY/WX    TMP DP  RH WIND       PRES   REMARKS
CAPE GIRARDEAU CLOUDY    31  22  69 NE6       30.45F WCI  25
FARMINGTON     CLOUDY    25  25 100 S5        30.43F WCI  19
POPLAR BLUFF   CLOUDY    30  21  69 NE7       30.43F WCI  23
WEST PLAINS    CLOUDY    26  22  84 E5        30.38F WCI  20

$$



USA.gov is the U.S. government's official web portal to all federal, state and local government web resources and services.